Back to catalog

COSMOS 2506 DEB

AliveSSO
NORAD 47212·DEBRIS·🇷🇺 Russia

Launched Jun 23, 2015 from Plesetsk Cosmodrome

Loading…

Next Passes (next 24 hours)

TLE

FreshSource: Space-Track

Epoch: Sep 13, 2026, 10:55 UTC

1 47212U 15029C   26256.45544881  .00002848  00000-0  44709-3 0  9992
2 47212  98.1103 329.3184 0006282 200.2080 159.8880 14.73402321310639

Track COSMOS 2506 DEB in real time with AllMySat

Download on the App Store